| time (UTC) | temp F | wind direction | speed MPH | gust MPH | rain 1hr in | rain 24hr in | rain mn in | humidity % | barometer mb |
| 20260506211048 | 40 | 236 | 9.0 | 17.0 | 0.00 | 0.00 | 0.00 | 59 | 1019.4 |
| 20260506210544 | 39 | 236 | 13.0 | 17.0 | 0.00 | 0.00 | 0.00 | 58 | 1019.5 |
| 20260506210041 | 39 | 238 | 10.0 | 13.0 | 0.00 | 0.00 | 0.00 | 67 | 1019.4 |
| 20260506205537 | 39 | 209 | 12.0 | 16.0 | 0.00 | 0.00 | 0.00 | 62 | 1019.3 |
| 20260506205027 | 39 | 244 | 12.0 | 18.0 | 0.00 | 0.00 | 0.00 | 64 | 1019.5 |
| 20260506204525 | 39 | 234 | 10.0 | 16.0 | 0.00 | 0.00 | 0.00 | 66 | 1019.5 |
| 20260506204022 | 39 | 239 | 13.0 | 16.0 | 0.00 | 0.00 | 0.00 | 65 | 1019.4 |
| 20260506203521 | 39 | 220 | 8.0 | 10.0 | 0.00 | 0.00 | 0.00 | 64 | 1019.4 |
| 20260506203016 | 39 | 212 | 7.0 | 17.0 | 0.00 | 0.00 | 0.00 | 64 | 1019.4 |
| 20260506202514 | 39 | 211 | 9.0 | 11.0 | 0.00 | 0.00 | 0.00 | 65 | 1019.6 |
| 20260506202010 | 39 | 235 | 14.0 | 16.0 | 0.00 | 0.00 | 0.00 | 64 | 1019.6 |
| 20260506201508 | 39 | 252 | 7.0 | 14.0 | 0.00 | 0.00 | 0.00 | 58 | 1019.7 |
| 20260506200959 | 38 | 251 | 9.0 | 15.0 | 0.00 | 0.00 | 0.00 | 63 | 1019.9 |
| 20260506200455 | 39 | 229 | 11.0 | 14.0 | 0.00 | 0.00 | 0.00 | 65 | 1020.0 |
| 20260506195951 | 39 | 230 | 9.0 | 16.0 | 0.00 | 0.00 | 0.00 | 62 | 1019.9 |
| 20260506195448 | 39 | 272 | 5.0 | 11.0 | 0.00 | 0.00 | 0.00 | 58 | 1020.2 |
| 20260506194939 | 38 | 274 | 6.0 | 11.0 | 0.00 | 0.00 | 0.00 | 59 | 1020.0 |
| 20260506194436 | 39 | 243 | 7.0 | 11.0 | 0.00 | 0.00 | 0.00 | 59 | 1020.1 |
| 20260506193932 | 38 | 223 | 5.0 | 15.0 | 0.00 | 0.00 | 0.00 | 61 | 1020.0 |
| 20260506193429 | 38 | 238 | 10.0 | 13.0 | 0.00 | 0.00 | 0.00 | 59 | 1020.2 |
| 20260506192926 | 38 | 247 | 0.0 | 13.0 | 0.00 | 0.00 | 0.00 | 61 | 1019.9 |
| 20260506192424 | 38 | 248 | 4.0 | 9.0 | 0.00 | 0.00 | 0.00 | 63 | 1020.1 |
| 20260506191921 | 37 | 250 | 12.0 | 14.0 | 0.00 | 0.00 | 0.00 | 66 | 1019.9 |
| 20260506191417 | 37 | 311 | 6.0 | 10.0 | 0.00 | 0.00 | 0.00 | 68 | 1020.2 |
| 20260506190914 | 36 | 315 | 7.0 | 9.0 | 0.00 | 0.00 | 0.00 | 73 | 1020.1 |
| 20260506190410 | 36 | 313 | 5.0 | 10.0 | 0.00 | 0.00 | 0.00 | 70 | 1019.9 |
| 20260506185907 | 37 | 282 | 8.0 | 11.0 | 0.00 | 0.00 | 0.00 | 70 | 1020.2 |
| 20260506185404 | 37 | 233 | 8.0 | 10.0 | 0.00 | 0.00 | 0.00 | 72 | 1020.3 |
| 20260506184902 | 36 | 266 | 4.0 | 11.0 | 0.00 | 0.00 | 0.00 | 75 | 1020.2 |
| 20260506184358 | 37 | 220 | 8.0 | 13.0 | 0.00 | 0.00 | 0.00 | 72 | 1020.3 |
| 20260506183855 | 37 | 198 | 4.0 | 10.0 | 0.00 | 0.00 | 0.00 | 75 | 1020.4 |
| 20260506183350 | 36 | 282 | 10.0 | 11.0 | 0.00 | 0.00 | 0.00 | 75 | 1020.4 |
| 20260506182848 | 36 | 248 | 7.0 | 10.0 | 0.00 | 0.00 | 0.00 | 73 | 1020.8 |
| 20260506182345 | 36 | 267 | 7.0 | 10.0 | 0.00 | 0.00 | 0.00 | 75 | 1020.6 |
| 20260506181842 | 36 | 247 | 11.0 | 13.0 | 0.00 | 0.00 | 0.00 | 75 | 1020.6 |
| 20260506181341 | 36 | 261 | 6.0 | 11.0 | 0.00 | 0.00 | 0.00 | 77 | 1020.6 |
| 20260506180837 | 36 | 110 | 7.0 | 9.0 | 0.00 | 0.00 | 0.00 | 78 | 1020.7 |
| 20260506180333 | 35 | 236 | 9.0 | 10.0 | 0.00 | 0.00 | 0.00 | 79 | 1020.7 |
| 20260506175829 | 35 | 309 | 7.0 | 11.0 | 0.00 | 0.00 | 0.00 | 79 | 1020.7 |
| 20260506175326 | 35 | 317 | 7.0 | 9.0 | 0.00 | 0.00 | 0.00 | 78 | 1020.7 |
| 20260506174824 | 35 | 286 | 8.0 | 9.0 | 0.00 | 0.00 | 0.00 | 81 | 1020.8 |
| 20260506174321 | 35 | 156 | 5.0 | 10.0 | 0.00 | 0.00 | 0.00 | 80 | 1020.8 |
| 20260506173819 | 35 | 291 | 6.0 | 11.0 | 0.00 | 0.00 | 0.00 | 80 | 1020.7 |
| 20260506173315 | 34 | 241 | 5.0 | 7.0 | 0.00 | 0.00 | 0.00 | 80 | 1020.6 |
| 20260506172812 | 35 | 309 | 7.0 | 9.0 | 0.00 | 0.00 | 0.00 | 81 | 1020.7 |
| 20260506172309 | 34 | 202 | 3.0 | 6.0 | 0.00 | 0.00 | 0.00 | 81 | 1020.7 |
| 20260506171806 | 34 | 308 | 5.0 | 7.0 | 0.00 | 0.00 | 0.00 | 80 | 1020.7 |
| 20260506171303 | 34 | 261 | 6.0 | 10.0 | 0.00 | 0.00 | 0.00 | 80 | 1020.6 |
| 20260506170801 | 35 | 306 | 7.0 | 8.0 | 0.00 | 0.00 | 0.00 | 80 | 1020.7 |
| 20260506170257 | 34 | 291 | 4.0 | 8.0 | 0.00 | 0.00 | 0.00 | 80 | 1020.4 |
| 20260506165756 | 34 | 255 | 5.0 | 7.0 | 0.00 | 0.00 | 0.00 | 84 | 1020.6 |
| 20260506165253 | 34 | 223 | 4.0 | 6.0 | 0.00 | 0.00 | 0.00 | 81 | 1020.6 |
| 20260506164750 | 33 | 278 | 3.0 | 6.0 | 0.00 | 0.00 | 0.00 | 84 | 1020.4 |
| 20260506164246 | 33 | 257 | 4.0 | 9.0 | 0.00 | 0.00 | 0.00 | 83 | 1020.4 |
| 20260506163743 | 33 | 246 | 3.0 | 9.0 | 0.00 | 0.00 | 0.00 | 86 | 1020.3 |
| 20260506163238 | 32 | 319 | 7.0 | 9.0 | 0.00 | 0.00 | 0.00 | 84 | 1020.3 |
| 20260506162734 | 32 | 278 | 6.0 | 7.0 | 0.00 | 0.00 | 0.00 | 87 | 1020.3 |
| 20260506162232 | 32 | 197 | 3.0 | 8.0 | 0.00 | 0.00 | 0.00 | 89 | 1020.2 |
| 20260506161729 | 32 | 283 | 5.0 | 8.0 | 0.00 | 0.00 | 0.00 | 89 | 1020.4 |
| 20260506161227 | 31 | 184 | 2.0 | 7.0 | 0.00 | 0.00 | 0.00 | 90 | 1020.3 |
| 20260506160724 | 31 | 326 | 9.0 | 9.0 | 0.00 | 0.00 | 0.00 | 90 | 1020.3 |
| 20260506160220 | 32 | 227 | 5.0 | 8.0 | 0.00 | 0.00 | 0.00 | 90 | 1020.6 |
| 20260506155719 | 32 | 328 | 7.0 | 9.0 | 0.00 | 0.00 | 0.00 | 91 | 1020.3 |
| 20260506155216 | 32 | 299 | 7.0 | 10.0 | 0.00 | 0.00 | 0.00 | 91 | 1020.4 |
| 20260506153323 | 32 | 190 | 3.0 | 7.0 | 0.00 | 0.00 | 0.00 | 92 | 1020.1 |
| 20260506152820 | 31 | 351 | 3.0 | 6.0 | 0.00 | 0.00 | 0.00 | 92 | 1020.0 |
| 20260506152317 | 31 | 335 | 4.0 | 6.0 | 0.00 | 0.00 | 0.00 | 92 | 1019.9 |
| 20260506151817 | 31 | 329 | 7.0 | 9.0 | 0.00 | 0.00 | 0.00 | 92 | 1020.2 |
| 20260506151312 | 31 | 17 | 5.0 | 8.0 | 0.00 | 0.00 | 0.00 | 91 | 1020.1 |
| 20260506150810 | 31 | 327 | 5.0 | 9.0 | 0.00 | 0.00 | 0.00 | 91 | 1020.1 |
| 20260506150307 | 31 | 42 | 7.0 | 8.0 | 0.00 | 0.00 | 0.00 | 91 | 1019.9 |
| 20260506145803 | 31 | 14 | 7.0 | 8.0 | 0.00 | 0.00 | 0.00 | 91 | 1020.1 |
| 20260506145300 | 31 | 351 | 4.0 | 7.0 | 0.00 | 0.00 | 0.00 | 92 | 1020.1 |
| 20260506144757 | 32 | 187 | 4.0 | 7.0 | 0.00 | 0.00 | 0.00 | 92 | 1020.1 |
| 20260506144254 | 32 | 263 | 0.0 | 5.0 | 0.00 | 0.00 | 0.00 | 92 | 1020.3 |
| 20260506143752 | 31 | 34 | 3.0 | 6.0 | 0.00 | 0.00 | 0.00 | 92 | 1020.1 |
| 20260506143249 | 31 | 151 | 3.0 | 5.0 | 0.00 | 0.00 | 0.00 | 93 | 1020.2 |
| 20260506142747 | 31 | 83 | 3.0 | 5.0 | 0.00 | 0.00 | 0.00 | 93 | 1020.0 |
| 20260506142245 | 30 | 193 | 3.0 | 5.0 | 0.00 | 0.00 | 0.00 | 93 | 1019.9 |
| 20260506141743 | 30 | 51 | 4.0 | 6.0 | 0.00 | 0.00 | 0.00 | 93 | 1019.9 |
| 20260506141241 | 30 | 287 | 3.0 | 6.0 | 0.00 | 0.00 | 0.00 | 93 | 1019.7 |
| 20260506140738 | 29 | 5 | 6.0 | 7.0 | 0.00 | 0.00 | 0.00 | 93 | 1019.9 |
| 20260506140235 | 29 | 16 | 6.0 | 6.0 | 0.00 | 0.00 | 0.00 | 93 | 1019.9 |
| 20260506135732 | 29 | 31 | 4.0 | 6.0 | 0.00 | 0.00 | 0.00 | 94 | 1019.9 |
| 20260506135228 | 29 | 338 | 5.0 | 6.0 | 0.00 | 0.00 | 0.00 | 94 | 1019.9 |
| 20260506134725 | 29 | 35 | 6.0 | 7.0 | 0.00 | 0.00 | 0.00 | 94 | 1019.9 |
| 20260506134221 | 29 | 29 | 3.0 | 5.0 | 0.00 | 0.00 | 0.00 | 94 | 1019.7 |
| 20260506133719 | 29 | 348 | 4.0 | 5.0 | 0.00 | 0.00 | 0.00 | 94 | 1019.6 |
| 20260506133215 | 28 | 211 | 2.0 | 2.0 | 0.00 | 0.00 | 0.00 | 94 | 1019.6 |
| 20260506132712 | 28 | 252 | 2.0 | 3.0 | 0.00 | 0.00 | 0.00 | 94 | 1019.6 |
| 20260506132209 | 28 | 17 | 4.0 | 5.0 | 0.00 | 0.00 | 0.00 | 94 | 1019.5 |
| 20260506131707 | 28 | 1 | 2.0 | 2.0 | 0.00 | 0.00 | 0.00 | 94 | 1019.7 |
| 20260506131203 | 28 | 168 | 1.0 | 2.0 | 0.00 | 0.00 | 0.00 | 94 | 1019.9 |
| 20260506130700 | 28 | 214 | 2.0 | 5.0 | 0.00 | 0.00 | 0.00 | 94 | 1019.7 |
| 20260506130157 | 27 | 31 | 2.0 | 5.0 | 0.00 | 0.00 | 0.00 | 94 | 1019.5 |
| 20260506125655 | 27 | 121 | 3.0 | 5.0 | 0.00 | 0.00 | 0.00 | 94 | 1019.5 |
| 20260506125153 | 26 | 3 | 4.0 | 6.0 | 0.00 | 0.00 | 0.00 | 94 | 1019.4 |
| 20260506124650 | 26 | 88 | 5.0 | 6.0 | 0.00 | 0.00 | 0.00 | 94 | 1019.1 |
| 20260506124147 | 26 | 346 | 4.0 | 5.0 | 0.00 | 0.00 | 0.00 | 94 | 1019.3 |
| 20260506123645 | 26 | 340 | 3.0 | 5.0 | 0.00 | 0.00 | 0.00 | 94 | 1019.4 |
| 20260506123144 | 26 | 195 | 2.0 | 3.0 | 0.00 | 0.00 | 0.00 | 94 | 1019.1 |
| 20260506122640 | 26 | 283 | 2.0 | 3.0 | 0.00 | 0.00 | 0.00 | 94 | 1018.9 |
| 20260506122138 | 26 | 231 | 1.0 | 2.0 | 0.00 | 0.00 | 0.00 | 94 | 1019.0 |
| 20260506121635 | 26 | 336 | 3.0 | 5.0 | 0.00 | 0.00 | 0.00 | 94 | 1018.8 |
| 20260506121131 | 26 | 123 | 4.0 | 5.0 | 0.00 | 0.00 | 0.00 | 94 | 1018.7 |
| 20260506120630 | 26 | 114 | 3.0 | 5.0 | 0.00 | 0.00 | 0.00 | 94 | 1018.7 |
| 20260506120127 | 26 | 10 | 5.0 | 6.0 | 0.00 | 0.00 | 0.00 | 94 | 1018.8 |
| 20260506115625 | 25 | 165 | 2.0 | 3.0 | 0.00 | 0.00 | 0.00 | 94 | 1018.7 |
| 20260506115123 | 26 | 145 | 3.0 | 5.0 | 0.00 | 0.00 | 0.00 | 94 | 1018.4 |
| 20260506114620 | 26 | 106 | 3.0 | 3.0 | 0.00 | 0.00 | 0.00 | 94 | 1018.7 |
| 20260506114118 | 26 | 241 | 2.0 | 2.0 | 0.00 | 0.00 | 0.00 | 94 | 1018.7 |
| 20260506113616 | 26 | 160 | 3.0 | 3.0 | 0.00 | 0.00 | 0.00 | 94 | 1018.4 |
| 20260506113113 | 26 | 135 | 2.0 | 3.0 | 0.00 | 0.00 | 0.00 | 94 | 1018.2 |
| 20260506112609 | 27 | 119 | 2.0 | 3.0 | 0.00 | 0.00 | 0.00 | 94 | 1018.2 |
| 20260506112107 | 27 | 33 | 2.0 | 3.0 | 0.00 | 0.00 | 0.00 | 94 | 1018.3 |
| 20260506111604 | 27 | 140 | 2.0 | 3.0 | 0.00 | 0.00 | 0.00 | 94 | 1018.3 |
| 20260506111102 | 28 | 110 | 3.0 | 3.0 | 0.00 | 0.00 | 0.00 | 94 | 1017.9 |
| 20260506110559 | 28 | 79 | 5.0 | 7.0 | 0.00 | 0.00 | 0.00 | 94 | 1018.2 |
| 20260506110056 | 28 | 65 | 5.0 | 6.0 | 0.00 | 0.00 | 0.00 | 94 | 1018.2 |
| 20260506105552 | 28 | 82 | 4.0 | 7.0 | 0.00 | 0.00 | 0.00 | 94 | 1018.2 |
| 20260506105050 | 28 | 42 | 3.0 | 7.0 | 0.00 | 0.00 | 0.00 | 94 | 1017.9 |
| 20260506104548 | 28 | 41 | 4.0 | 8.0 | 0.00 | 0.00 | 0.00 | 94 | 1018.2 |
| 20260506104045 | 28 | 34 | 3.0 | 8.0 | 0.00 | 0.00 | 0.00 | 95 | 1018.1 |
| 20260506103542 | 28 | 52 | 4.0 | 7.0 | 0.00 | 0.00 | 0.00 | 95 | 1018.0 |
| 20260506103039 | 28 | 95 | 3.0 | 5.0 | 0.00 | 0.00 | 0.00 | 95 | 1018.3 |
| 20260506102538 | 28 | 109 | 1.0 | 3.0 | 0.00 | 0.00 | 0.00 | 95 | 1018.1 |
| 20260506102035 | 28 | 118 | 1.0 | 5.0 | 0.00 | 0.00 | 0.00 | 95 | 1018.1 |
| 20260506101531 | 28 | 119 | 1.0 | 3.0 | 0.00 | 0.00 | 0.00 | 95 | 1018.3 |
| 20260506101028 | 28 | 71 | 1.0 | 3.0 | 0.00 | 0.00 | 0.00 | 95 | 1018.2 |
| 20260506100526 | 28 | 88 | 0.0 | 3.0 | 0.00 | 0.00 | 0.00 | 95 | 1018.4 |
| 20260506100024 | 28 | 65 | 1.0 | 5.0 | 0.00 | 0.00 | 0.00 | 95 | 1018.1 |
| 20260506095523 | 28 | 81 | 1.0 | 5.0 | 0.00 | 0.00 | 0.00 | 95 | 1018.1 |
| 20260506095019 | 28 | 76 | 5.0 | 8.0 | 0.00 | 0.00 | 0.00 | 95 | 1017.7 |
| 20260506094517 | 28 | 67 | 2.0 | 10.0 | 0.00 | 0.00 | 0.00 | 95 | 1018.1 |
| 20260506094014 | 28 | 70 | 5.0 | 8.0 | 0.00 | 0.00 | 0.00 | 95 | 1017.9 |
| 20260506093513 | 28 | 73 | 4.0 | 8.0 | 0.00 | 0.00 | 0.00 | 95 | 1018.1 |
| 20260506093010 | 29 | 36 | 5.0 | 9.0 | 0.00 | 0.00 | 0.00 | 95 | 1018.1 |
| 20260506092508 | 29 | 61 | 1.0 | 5.0 | 0.00 | 0.00 | 0.00 | 95 | 1018.0 |
| 20260506092004 | 29 | 64 | 2.0 | 5.0 | 0.00 | 0.00 | 0.00 | 95 | 1017.9 |
| 20260506091502 | 29 | 86 | 1.0 | 3.0 | 0.00 | 0.00 | 0.00 | 95 | 1017.9 |
| 20260506090959 | 30 | 74 | 4.0 | 7.0 | 0.00 | 0.00 | 0.00 | 95 | 1018.0 |
| 20260506090457 | 30 | 97 | 2.0 | 3.0 | 0.00 | 0.00 | 0.00 | 94 | 1017.7 |
| 20260506085953 | 30 | 10 | 3.0 | 3.0 | 0.00 | 0.00 | 0.00 | 94 | 1017.6 |
| 20260506085450 | 30 | 151 | 1.0 | 3.0 | 0.00 | 0.00 | 0.00 | 94 | 1017.6 |
| 20260506084946 | 30 | 218 | 1.0 | 1.0 | 0.00 | 0.00 | 0.00 | 94 | 1017.7 |
| 20260506084443 | 30 | 249 | 2.0 | 2.0 | 0.00 | 0.00 | 0.00 | 94 | 1017.5 |
| 20260506083939 | 30 | 255 | 2.0 | 3.0 | 0.00 | 0.00 | 0.00 | 94 | 1017.4 |
| 20260506083437 | 30 | 181 | 0.0 | 0.0 | 0.00 | 0.00 | 0.00 | 94 | 1017.6 |
| 20260506082934 | 30 | 198 | 0.0 | 1.0 | 0.00 | 0.00 | 0.00 | 94 | 1017.5 |
| 20260506082431 | 30 | 210 | 2.0 | 2.0 | 0.00 | 0.00 | 0.00 | 95 | 1017.5 |
| 20260506081926 | 30 | 211 | 1.0 | 2.0 | 0.00 | 0.00 | 0.00 | 95 | 1017.6 |
| 20260506081425 | 30 | 185 | 0.0 | 0.0 | 0.00 | 0.00 | 0.00 | 95 | 1017.5 |
| 20260506080922 | 30 | 184 | 0.0 | 0.0 | 0.00 | 0.00 | 0.00 | 95 | 1017.4 |
| 20260506080419 | 30 | 167 | 0.0 | 0.0 | 0.00 | 0.00 | 0.00 | 95 | 1017.3 |
| 20260506073403 | 30 | 133 | 0.0 | 2.0 | 0.00 | 0.00 | 0.00 | 96 | 1017.4 |
| 20260506072859 | 30 | 85 | 3.0 | 5.0 | 0.00 | 0.00 | 0.00 | 96 | 1017.3 |
| 20260506072357 | 30 | 122 | 2.0 | 2.0 | 0.00 | 0.00 | 0.00 | 96 | 1017.6 |
| 20260506071854 | 30 | 116 | 1.0 | 1.0 | 0.00 | 0.00 | 0.00 | 96 | 1017.6 |
| 20260506071353 | 30 | 174 | 0.0 | 1.0 | 0.00 | 0.00 | 0.00 | 96 | 1017.6 |
| 20260506070849 | 30 | 199 | 0.0 | 1.0 | 0.00 | 0.00 | 0.00 | 96 | 1017.6 |
| 20260506070346 | 30 | 186 | 0.0 | 2.0 | 0.00 | 0.00 | 0.00 | 96 | 1017.7 |
| 20260506062323 | 31 | 90 | 2.0 | 3.0 | 0.00 | 0.00 | 0.00 | 97 | 1017.5 |
| 20260506061819 | 31 | 89 | 2.0 | 3.0 | 0.00 | 0.00 | 0.00 | 97 | 1017.6 |
| 20260506061316 | 31 | 90 | 2.0 | 2.0 | 0.00 | 0.00 | 0.00 | 97 | 1017.4 |
| 20260506060814 | 31 | 89 | 2.0 | 2.0 | 0.00 | 0.00 | 0.00 | 97 | 1017.4 |
| 20260506060312 | 31 | 90 | 1.0 | 2.0 | 0.00 | 0.00 | 0.00 | 97 | 1017.3 |
| 20260506051238 | 31 | 88 | 0.0 | 1.0 | 0.00 | 0.01 | 0.01 | 97 | 1016.9 |
| 20260506050736 | 31 | 88 | 1.0 | 1.0 | 0.00 | 0.01 | 0.01 | 97 | 1016.8 |
| 20260506050233 | 31 | 88 | 0.0 | 1.0 | 0.00 | 0.01 | 0.01 | 96 | 1016.9 |
| 20260506044724 | 31 | 87 | 1.0 | 2.0 | 0.00 | 0.01 | 0.01 | 97 | 1017.0 |
| 20260506044221 | 31 | 87 | 2.0 | 2.0 | 0.00 | 0.01 | 0.01 | 97 | 1017.3 |
| 20260506043718 | 31 | 87 | 1.0 | 2.0 | 0.00 | 0.01 | 0.01 | 96 | 1017.1 |
| 20260506043216 | 31 | 86 | 1.0 | 3.0 | 0.00 | 0.01 | 0.01 | 97 | 1016.8 |
| 20260506042714 | 31 | 86 | 2.0 | 3.0 | 0.00 | 0.01 | 0.01 | 96 | 1016.9 |
| 20260506042212 | 31 | 86 | 3.0 | 3.0 | 0.00 | 0.01 | 0.01 | 97 | 1017.1 |
| 20260506041711 | 32 | 86 | 3.0 | 3.0 | 0.00 | 0.01 | 0.01 | 96 | 1016.9 |
| 20260506041207 | 32 | 86 | 3.0 | 3.0 | 0.00 | 0.01 | 0.01 | 96 | 1016.9 |
| 20260506040705 | 32 | 86 | 3.0 | 3.0 | 0.00 | 0.01 | 0.01 | 96 | 1016.8 |
| 20260506040202 | 32 | 86 | 2.0 | 2.0 | 0.00 | 0.01 | 0.01 | 97 | 1016.8 |
| 20260506035658 | 32 | 85 | 0.0 | 2.0 | 0.00 | 0.01 | 0.01 | 97 | 1016.9 |
| 20260506035155 | 32 | 80 | 2.0 | 2.0 | 0.00 | 0.01 | 0.01 | 96 | 1016.4 |
| 20260506034652 | 32 | 79 | 1.0 | 2.0 | 0.00 | 0.01 | 0.01 | 97 | 1016.7 |
| 20260506034149 | 32 | 71 | 3.0 | 3.0 | 0.00 | 0.01 | 0.01 | 96 | 1016.6 |
| 20260506033647 | 32 | 92 | 2.0 | 2.0 | 0.00 | 0.01 | 0.01 | 96 | 1016.7 |
| 20260506033143 | 32 | 109 | 2.0 | 2.0 | 0.00 | 0.01 | 0.01 | 96 | 1016.4 |
| 20260506032640 | 32 | 102 | 1.0 | 2.0 | 0.00 | 0.01 | 0.01 | 96 | 1016.7 |
| 20260506032137 | 32 | 171 | 0.0 | 2.0 | 0.00 | 0.01 | 0.01 | 96 | 1016.6 |
| 20260506031634 | 32 | 108 | 2.0 | 2.0 | 0.00 | 0.01 | 0.01 | 96 | 1016.4 |
| 20260506031131 | 32 | 91 | 1.0 | 2.0 | 0.00 | 0.01 | 0.01 | 96 | 1016.4 |
| 20260506030630 | 32 | 98 | 1.0 | 2.0 | 0.00 | 0.01 | 0.01 | 96 | 1016.1 |
| 20260506030127 | 32 | 61 | 1.0 | 3.0 | 0.00 | 0.01 | 0.01 | 96 | 1016.2 |
| 20260506025623 | 32 | 65 | 2.0 | 3.0 | 0.00 | 0.01 | 0.01 | 96 | 1016.2 |
| 20260506025119 | 32 | 67 | 2.0 | 3.0 | 0.00 | 0.01 | 0.01 | 96 | 1015.8 |
| 20260506024617 | 32 | 71 | 3.0 | 5.0 | 0.00 | 0.01 | 0.01 | 96 | 1015.8 |
| 20260506024113 | 32 | 48 | 4.0 | 5.0 | 0.00 | 0.01 | 0.01 | 96 | 1015.8 |
| 20260506023609 | 32 | 53 | 3.0 | 6.0 | 0.00 | 0.01 | 0.01 | 96 | 1016.0 |
| 20260506023107 | 32 | 33 | 2.0 | 6.0 | 0.00 | 0.01 | 0.01 | 96 | 1015.7 |
| 20260506022604 | 32 | 49 | 4.0 | 6.0 | 0.00 | 0.01 | 0.01 | 96 | 1015.7 |
| 20260506022102 | 32 | 61 | 3.0 | 3.0 | 0.00 | 0.01 | 0.01 | 96 | 1015.6 |
| 20260506021559 | 32 | 86 | 2.0 | 5.0 | 0.00 | 0.01 | 0.01 | 96 | 1015.6 |
| 20260506021056 | 32 | 61 | 2.0 | 6.0 | 0.00 | 0.01 | 0.01 | 96 | 1015.6 |
| 20260506020553 | 32 | 63 | 3.0 | 6.0 | 0.00 | 0.01 | 0.01 | 96 | 1015.5 |
| 20260506020051 | 32 | 61 | 3.0 | 8.0 | 0.00 | 0.01 | 0.01 | 96 | 1015.6 |
| 20260506015548 | 32 | 56 | 6.0 | 8.0 | 0.00 | 0.01 | 0.01 | 96 | 1015.3 |
| 20260506015045 | 32 | 72 | 5.0 | 9.0 | 0.00 | 0.01 | 0.01 | 96 | 1015.5 |
| 20260506014543 | 32 | 66 | 4.0 | 8.0 | 0.00 | 0.01 | 0.01 | 96 | 1015.3 |
| 20260506014038 | 32 | 66 | 2.0 | 6.0 | 0.00 | 0.01 | 0.01 | 96 | 1015.0 |
| 20260506013536 | 32 | 63 | 6.0 | 10.0 | 0.00 | 0.01 | 0.01 | 96 | 1014.9 |
| 20260506013032 | 32 | 79 | 4.0 | 8.0 | 0.00 | 0.01 | 0.01 | 96 | 1015.1 |
| 20260506012529 | 32 | 74 | 6.0 | 9.0 | 0.00 | 0.01 | 0.01 | 96 | 1014.8 |
| 20260506012026 | 32 | 47 | 5.0 | 9.0 | 0.00 | 0.01 | 0.01 | 96 | 1014.7 |
| 20260506011524 | 32 | 57 | 12.0 | 15.0 | 0.00 | 0.01 | 0.01 | 96 | 1014.8 |
| 20260506011020 | 32 | 32 | 7.0 | 9.0 | 0.00 | 0.01 | 0.01 | 96 | 1014.5 |
| 20260506010519 | 32 | 31 | 11.0 | 14.0 | 0.00 | 0.01 | 0.01 | 96 | 1014.7 |
| 20260506010015 | 32 | 33 | 9.0 | 10.0 | 0.00 | 0.01 | 0.01 | 96 | 1014.5 |
| 20260506005512 | 32 | 29 | 8.0 | 13.0 | 0.00 | 0.01 | 0.01 | 96 | 1014.8 |
| 20260506005008 | 32 | 59 | 6.0 | 9.0 | 0.00 | 0.01 | 0.01 | 96 | 1014.4 |
| 20260506004506 | 32 | 67 | 5.0 | 7.0 | 0.00 | 0.01 | 0.01 | 96 | 1014.7 |
| 20260506004002 | 32 | 348 | 3.0 | 6.0 | 0.00 | 0.01 | 0.01 | 96 | 1014.3 |
| 20260506003458 | 32 | 359 | 4.0 | 5.0 | 0.00 | 0.01 | 0.01 | 96 | 1014.3 |
| 20260506002954 | 32 | 353 | 0.0 | 5.0 | 0.00 | 0.01 | 0.01 | 96 | 1014.4 |
| 20260506002451 | 32 | 324 | 4.0 | 5.0 | 0.00 | 0.01 | 0.01 | 96 | 1014.4 |
| 20260506001946 | 32 | 151 | 2.0 | 2.0 | 0.00 | 0.01 | 0.01 | 96 | 1014.5 |
| 20260506001443 | 32 | 277 | 0.0 | 0.0 | 0.00 | 0.01 | 0.01 | 96 | 1014.5 |
| 20260506000940 | 32 | 252 | 0.0 | 0.0 | 0.00 | 0.01 | 0.01 | 96 | 1014.5 |
| 20260506000438 | 32 | 307 | 3.0 | 6.0 | 0.00 | 0.01 | 0.01 | 95 | 1014.4 |
| 20260505235935 | 32 | 314 | 4.0 | 6.0 | 0.00 | 0.01 | 0.01 | 95 | 1014.5 |
| 20260505235433 | 32 | 178 | 4.0 | 5.0 | 0.00 | 0.01 | 0.01 | 95 | 1014.8 |
| 20260505234929 | 32 | 287 | 5.0 | 6.0 | 0.00 | 0.01 | 0.01 | 95 | 1014.4 |
| 20260505234427 | 32 | 192 | 5.0 | 6.0 | 0.00 | 0.01 | 0.01 | 95 | 1014.4 |
| 20260505233923 | 32 | 297 | 3.0 | 5.0 | 0.00 | 0.01 | 0.01 | 95 | 1014.7 |
| 20260505233421 | 32 | 202 | 3.0 | 5.0 | 0.00 | 0.01 | 0.01 | 95 | 1014.4 |
| 20260505232919 | 32 | 292 | 5.0 | 6.0 | 0.00 | 0.01 | 0.01 | 95 | 1014.4 |
| 20260505232417 | 32 | 291 | 4.0 | 5.0 | 0.00 | 0.01 | 0.01 | 95 | 1014.3 |
| 20260505231913 | 32 | 297 | 5.0 | 7.0 | 0.00 | 0.01 | 0.01 | 95 | 1014.4 |
| 20260505231410 | 32 | 289 | 4.0 | 5.0 | 0.00 | 0.01 | 0.01 | 95 | 1014.5 |
| 20260505230909 | 32 | 300 | 1.0 | 3.0 | 0.00 | 0.01 | 0.01 | 95 | 1014.4 |
| 20260505230406 | 32 | 296 | 4.0 | 6.0 | 0.00 | 0.01 | 0.01 | 95 | 1014.3 |
| 20260505225902 | 32 | 311 | 5.0 | 6.0 | 0.00 | 0.01 | 0.01 | 95 | 1014.4 |
| 20260505225359 | 32 | 240 | 2.0 | 3.0 | 0.00 | 0.01 | 0.01 | 95 | 1014.3 |
| 20260505224854 | 32 | 6 | 3.0 | 3.0 | 0.00 | 0.01 | 0.01 | 95 | 1014.5 |
| 20260505224352 | 32 | 228 | 1.0 | 3.0 | 0.00 | 0.01 | 0.01 | 95 | 1014.3 |
| 20260505223849 | 33 | 177 | 2.0 | 3.0 | 0.00 | 0.01 | 0.01 | 95 | 1014.2 |
| 20260505223346 | 33 | 226 | 2.0 | 2.0 | 0.00 | 0.01 | 0.01 | 95 | 1013.8 |
| 20260505222842 | 32 | 300 | 3.0 | 3.0 | 0.00 | 0.01 | 0.01 | 95 | 1014.1 |
| 20260505222338 | 32 | 123 | 2.0 | 3.0 | 0.00 | 0.01 | 0.01 | 95 | 1014.2 |
| 20260505221835 | 32 | 253 | 2.0 | 2.0 | 0.00 | 0.01 | 0.01 | 95 | 1014.2 |
| 20260505221332 | 33 | 190 | 1.0 | 2.0 | 0.00 | 0.01 | 0.01 | 95 | 1014.3 |
| 20260505220829 | 33 | 162 | 1.0 | 2.0 | 0.00 | 0.01 | 0.01 | 95 | 1014.1 |
| 20260505220326 | 33 | 164 | 1.0 | 2.0 | 0.00 | 0.01 | 0.01 | 95 | 1014.0 |
| 20260505215824 | 33 | 144 | 1.0 | 1.0 | 0.00 | 0.01 | 0.01 | 95 | 1014.0 |
| 20260505215322 | 33 | 117 | 0.0 | 2.0 | 0.00 | 0.01 | 0.01 | 95 | 1014.2 |
| 20260505214820 | 33 | 83 | 2.0 | 3.0 | 0.00 | 0.01 | 0.01 | 95 | 1014.2 |
| 20260505214317 | 33 | 142 | 0.0 | 1.0 | 0.00 | 0.01 | 0.01 | 95 | 1014.2 |
| 20260505213814 | 33 | 106 | 0.0 | 3.0 | 0.00 | 0.01 | 0.01 | 95 | 1014.2 |
| 20260505213312 | 33 | 111 | 1.0 | 1.0 | 0.00 | 0.01 | 0.01 | 95 | 1014.3 |
| 20260505212807 | 33 | 145 | 2.0 | 2.0 | 0.00 | 0.01 | 0.01 | 95 | 1014.5 |
| 20260505212306 | 33 | 148 | 0.0 | 2.0 | 0.00 | 0.01 | 0.01 | 95 | 1014.3 |
| 20260505211801 | 33 | 106 | 1.0 | 2.0 | 0.00 | 0.01 | 0.01 | 95 | 1014.8 |